User: anonymous   Login
Location: Oshawa
(43.9000°N, 78.8670°W)
Time: 11:14:52
(UTC-04:00)
Language:

Iridium 54 - Orbit

View from above orbital plane
View from above orbital plane
View from above satellite
View from above satellite

Ground track
Ground track

The orbit data is extracted from the following two-line orbital elements,

1 25171U 98010C   15144.47158358  .00000111  00000-0  32463-4 0  9995
2 25171 086.3940 305.8366 0002251 093.4974 266.6479 14.34220030903758
Epoch (UTC): 24 May 2015 11:19:04
Eccentricity: 0.0002251
inclination: 86.3940°
perigee height: 776 km
apogee height: 779 km
right ascension of ascending node: 305.8366°
argument of perigee: 93.4974°
revolutions per day: 14.34220030
mean anomaly at epoch: 266.6479°
orbit number at epoch: 90375

The dashed part of the orbit path shows where the satellite is in the earth's shadow,  

DLR